Regional Weather Roundup
Issued by NWS

Home | Current Version | Previous Version | Text Only | Print | Product List | Glossary On
Versions: 1 2 3 4 5 6 7 8 9 10 11 12 13 14 15 16 17 18 19 20 21 22 23 24 25 26 27 28 29 30 31 32 33 34 35 36 37 38 39 40 41 42 43 44 45 46 47 48 49 50
000
ASUS44 KOUN 181010
RWROK

WEATHER ROUNDUP FOR OKLAHOMA
NATIONAL WEATHER SERVICE NORMAN OK
500 AM CDT FRI AUG 18 2017

NOTE: "FAIR" INDICATES FEW OR NO CLOUDS BELOW 12,000 FEET WITH NO
      SIGNIFICANT WEATHER AND/OR OBSTRUCTIONS TO VISIBILITY.

OKZ001>007-009>012-014-015-017-181100-
NORTHWEST OKLAHOMA AND THE PANHANDLE

CITY           SKY/WX    TMP DP  RH WIND       PRES   REMARKS
GAGE           LGT RAIN  68  63  84 NW21G32   30.13R
ENID/WOODRING  CLOUDY    72  68  88 W3        29.98R
$$

OKZ016-021>023-033>039-044-045-181100-
SOUTHWEST OKLAHOMA

CITY           SKY/WX    TMP DP  RH WIND       PRES   REMARKS
LAWTON/REGL      N/A    N/A N/A N/A NE3       30.01R
LAWTON/FT SILL CLEAR     71  71 100 CALM      29.99R
FREDERICK      CLEAR     72  70  93 SE3       29.98R
CLINTON        CLOUDY    71  65  81 N12       30.05S
HOBART         CLEAR     73  69  87 NE6       30.03R
ALTUS AFB      CLEAR     70  70 100 E6        30.00S
$$

OKZ018>020-024>031-181100-
CENTRAL OKLAHOMA

CITY           SKY/WX    TMP DP  RH WIND       PRES   REMARKS
OKLAHOMA CITY  PTCLDY    71  70  96 S5        30.00F
OKC/WILEY POST CLEAR     72  71  97 S7        29.99F
OKC/TINKER AFB CLEAR     73  73 100 S7        29.99F
STILLWATER     CLOUDY    73  69  87 CALM      29.97F
GUTHRIE        CLOUDY    72  70  93 CALM      29.98F
$$

OKZ008-013-054>072-181100-
NORTHEAST OKLAHOMA

CITY           SKY/WX    TMP DP  RH WIND       PRES   REMARKS
TULSA          CLOUDY    74  72  93 CALM      29.96S
TULSA/JONES    CLEAR     72  71  97 CALM      29.97F
PONCA CITY     PTCLDY    70  66  87 CALM      29.96S
BARTLESVILLE   MOCLDY    66  64  93 CALM      29.97F
MUSKOGEE       FOG       72  72 100 SE3       29.99S VSB 1/2
$$

OKZ032-040>043-046>053-073>077-181100-
SOUTH CENTRAL/SOUTHEAST OKLAHOMA

CITY           SKY/WX    TMP DP  RH WIND       PRES   REMARKS
ARDMORE/DWNTWN PTCLDY    72  68  88 CALM      29.99S
MCALESTER      CLEAR     73  71  93 E3        30.01R FOG
$$





USA.gov is the U.S. government's official web portal to all federal, state and local government web resources and services.